FW1524 Weather Reports


time (UTC)temp
C
wind
direction
speed
KPH
gust
KPH
rain 1hr
cm
rain 24hr
cm
rain mn
cm
humidity
%
barometer
mb
20260505124508 16 108 0.0 0.0 0.00 0.08 0.08 1 1005.4
20260505123010 16 215 0.0 0.0 0.08 0.08 0.08 1 1005.5
20260505121506 16 215 0.0 0.0 0.08 0.08 0.08 1 1005.6
20260505120002 16 237 0.0 0.0 0.08 0.08 0.08 1 1005.4
20260505114558 17 232 0.0 0.0 0.08 0.08 0.08 10 1005.0
20260505113049 16 201 0.0 1.6 0.00 0.00 0.00 18 1005.3
20260505111545 15 220 0.0 0.0 0.00 0.00 0.00 11 1005.6
20260505101538 13 241 0.0 0.0 0.00 0.00 0.00 7 1005.2
20260505100036 13 241 0.0 0.0 0.00 0.00 0.00 11 1004.7
20260505094533 13 241 0.0 0.0 0.00 0.00 0.00 13 1004.9
20260505093025 13 241 0.0 0.0 0.00 0.00 0.00 16 1004.6
20260505091523 13 237 0.0 0.0 0.00 0.00 0.00 20 1004.5
20260505090023 13 219 0.0 0.0 0.00 0.00 0.00 24 1004.4
20260505084521 14 219 0.0 0.0 0.00 0.00 0.00 28 1004.4
20260505083008 14 214 0.0 0.0 0.00 0.00 0.00 31 1004.4
20260505081507 14 213 0.0 0.0 0.00 0.00 0.00 30 1004.4
20260505080008 15 213 0.0 0.0 0.00 0.00 0.00 32 1004.5
20260505074505 14 213 0.0 0.0 0.00 0.00 0.00 35 1004.5
20260505073015 15 213 0.0 0.0 0.00 0.00 0.00 38 1004.5
20260505071514 15 213 0.0 0.0 0.00 0.00 0.00 40 1004.5
20260505070013 15 213 0.0 0.0 0.00 0.00 0.00 41 1004.7
20260505064512 14 213 0.0 0.0 0.00 0.00 0.00 39 1004.7
20260505063022 14 213 0.0 0.0 0.00 0.00 0.00 37 1004.7
20260505061522 13 213 0.0 0.0 0.00 0.00 0.00 35 1004.7
20260505060020 13 213 0.0 0.0 0.00 0.00 0.00 36 1004.6
20260505054540 13 213 0.0 0.0 0.00 0.00 0.00 40 1004.9
20260505053008 13 213 0.0 0.0 0.00 0.00 0.00 45 1004.9
20260505051507 13 213 0.0 0.0 0.00 0.00 0.00 48 1005.0
20260505041606 15 213 0.0 0.0 0.00 0.00 0.00 57 1004.9
20260505034610 16 211 0.0 0.0 0.00 0.00 0.00 58 1004.8
20260505033007 17 218 0.0 0.0 0.00 0.00 0.00 57 1004.6
20260505031504 17 228 0.0 0.0 0.00 0.00 0.00 55 1004.7
20260505030012 17 150 0.0 0.0 0.00 0.00 0.00 55 1004.8
20260505024503 17 189 0.0 0.0 0.00 0.00 0.00 55 1004.8
20260505023058 18 150 0.0 0.0 0.00 0.00 0.00 53 1004.8
20260505021558 17 165 0.0 4.8 0.00 0.00 0.00 53 1004.9
20260505020107 17 198 0.0 0.0 0.00 0.00 0.00 55 1005.0
20260505014558 18 199 0.0 0.0 0.00 0.00 0.00 53 1005.0
20260505013057 18 184 0.0 0.0 0.00 0.00 0.00 52 1004.8
20260505011602 18 177 0.0 0.0 0.00 0.00 0.00 51 1004.5
20260505010110 18 192 0.0 0.0 0.00 0.00 0.00 52 1004.6
20260505004624 18 134 0.0 0.0 0.00 0.00 0.00 50 1004.4
20260505003012 19 182 0.0 0.0 0.00 0.00 0.00 49 1004.3
20260505001511 20 165 0.0 0.0 0.00 0.00 0.00 47 1004.0
20260505000015 20 254 0.0 0.0 0.00 0.00 0.00 44 1004.0
20260504234512 21 59 0.0 0.0 0.00 0.00 0.00 44 1004.0
20260504233104 21 239 0.0 3.2 0.00 0.00 0.00 43 1003.8
20260504231656 21 192 0.0 0.0 0.00 0.00 0.00 43 1003.8
20260504230057 21 186 0.0 1.6 0.00 0.00 0.00 43 1003.7
20260504224600 22 181 0.0 1.6 0.00 0.00 0.00 41 1003.7
20260504223038 22 52 0.0 1.6 0.00 0.00 0.00 41 1003.6
20260504221554 22 186 0.0 1.6 0.00 0.00 0.00 40 1003.5
20260504220037 22 221 0.0 1.6 0.00 0.00 0.00 39 1003.5
20260504214537 23 200 0.0 1.6 0.00 0.00 0.00 39 1003.5
20260504213031 23 112 0.0 6.4 0.00 0.00 0.00 41 1003.5
20260504211514 22 125 0.0 1.6 0.00 0.00 0.00 40 1003.8
20260504210012 23 192 0.0 1.6 0.00 0.00 0.00 39 1003.9
20260504204512 23 221 0.0 0.0 0.00 0.00 0.00 40 1004.1
20260504203054 23 335 0.0 1.6 0.00 0.00 0.00 39 1004.2
20260504201554 23 248 0.0 1.6 0.00 0.00 0.00 39 1004.3
20260504200050 22 251 0.0 16.1 0.00 0.00 0.00 40 1004.6
20260504194554 23 52 0.0 6.4 0.00 0.00 0.00 42 1004.6
20260504193056 22 229 3.2 17.7 0.00 0.00 0.00 40 1004.9
20260504191613 22 234 0.0 4.8 0.00 0.00 0.00 41 1005.1
20260504190050 22 266 0.0 12.9 0.00 0.00 0.00 43 1005.1
20260504184555 21 49 0.0 1.6 0.00 0.00 0.00 43 1005.4
20260504183036 21 152 0.0 6.4 0.00 0.00 0.00 43 1005.4
20260504181535 21 239 0.0 16.1 0.00 0.00 0.00 43 1005.6
20260504180036 21 167 0.0 14.5 0.00 0.00 0.00 44 1006.2
20260504174532 21 244 1.6 16.1 0.00 0.00 0.00 43 1006.0
20260504173050 21 263 0.0 8.0 0.00 0.00 0.00 44 1006.1
20260504171548 20 233 0.0 12.9 0.00 0.00 0.00 45 1006.3
20260504160118 19 221 0.0 8.0 0.00 0.00 0.00 47 1007.1